Weather History for Volk, WI

Change the Weather History Date:

Saturday, August 24, 2013

  Actual Average Record
Temperature  
Mean Temperature 68 °F -  
Max Temperature 84 °F 76 °F 96 °F (2003)
Min Temperature 52 °F 59 °F 46 °F (2008)
Cooling Degree Days 3    
Growing Degree Days 18 (Base 50)    
Moisture  
Dew Point 61 °F    
Average Humidity 78    
Maximum Humidity 100    
Minimum Humidity 50    
Precipitation  
Precipitation 0.00 in - - ()
Sea Level Pressure  
Sea Level Pressure 30.17 in    
Wind  
Wind Speed 6 mph (SE)    
Max Wind Speed 13 mph    
Max Gust Speed -    
Visibility 10 miles    
Events      
Averages and records for this station are not official NWS values.
T = Trace of Precipitation, MM = Missing Value Source: NWS Daily Summary

Daily Weather History Graph

Daily Weather History Graph

Search for Another Location

Airport:

Trip Planner

Search our weather history database for the weather conditions in past years. The results will help you decide how hot, cold, wet, or windy it might be!

Date:

Astronomy

Aug. 24, 2013 Rise Set
Actual Time 6:15 AM CDT 7:50 PM CDT
Civil Twilight 5:45 AM CDT 8:20 PM CDT
Nautical Twilight 5:08 AM CDT 8:57 PM CDT
Astronomical Twilight 4:28 AM CDT 9:36 PM CDT
Moon 9:33 PM CDT (8/24) 10:25 AM CDT (8/24)
Length of Visible Light 14h 35m
Length of Day
13h 34m
Waning Gibbous, 84% of the Moon is Illuminated
Aug 24
Waning Gibbous
Aug 28
Last Quarter
Sep 5
New
Sep 12
First Quarter
Sep 19
Full

Hourly Weather History & Observations

Time (CDT) Temp. Heat Index Dew Point Humidity Pressure Visibility Wind Dir Wind Speed Gust Speed Precip Events Conditions
12:03 AM 55.4 °F - 55.4 °F 100% 30.16 in 1.8 mi SE 3.5 mph - N/A   Clear
12:08 AM 57.2 °F - 57.2 °F 100% 30.16 in 4.0 mi SE 4.6 mph - N/A   Clear
12:18 AM 57.2 °F - 57.2 °F 100% 30.16 in 10.0 mi SE 4.6 mph - N/A   Clear
12:58 AM 55.8 °F - 55.4 °F 99% 30.17 in 10.0 mi ESE 3.5 mph - N/A   Clear
1:58 AM 55.9 °F - 55.4 °F 98% 30.17 in 10.0 mi SE 4.6 mph - N/A   Clear
2:58 AM 54.3 °F - 53.2 °F 96% 30.19 in 10.0 mi ESE 3.5 mph - N/A   Clear
3:58 AM 53.8 °F - 53.6 °F 99% 30.20 in 10.0 mi SSE 4.6 mph - N/A   Clear
4:58 AM 52.3 °F - 52.0 °F 99% 30.22 in 10.0 mi SE 4.6 mph - N/A   Clear
5:58 AM 52.0 °F - 51.6 °F 99% 30.23 in 10.0 mi SSE 3.5 mph - N/A   Partly Cloudy
6:58 AM 53.2 °F - 53.2 °F 100% 30.22 in 10.0 mi SE 4.6 mph - N/A   Clear
7:58 AM 62.6 °F - 53.6 °F 72% 30.24 in 10.0 mi Variable 4.6 mph - N/A   Partly Cloudy
8:58 AM 69.8 °F - 53.6 °F 56% 30.23 in 10.0 mi SSE 8.1 mph - N/A   Scattered Clouds
9:58 AM 73.4 °F - 55.4 °F 53% 30.24 in 10.0 mi SSE 6.9 mph - N/A   Mostly Cloudy
10:58 AM 77.0 °F - 57.2 °F 50% 30.22 in 10.0 mi SE 10.4 mph - N/A   Mostly Cloudy
11:58 AM 77.0 °F - 62.6 °F 61% 30.22 in 10.0 mi SSE 6.9 mph - N/A   Overcast
12:58 PM 80.6 °F 82.7 °F 66.2 °F 61% 30.20 in 10.0 mi SSE 9.2 mph - N/A   Overcast
1:58 PM 80.6 °F 82.7 °F 66.2 °F 61% 30.19 in 10.0 mi SE 10.4 mph - N/A   Mostly Cloudy
2:58 PM 82.4 °F 85.4 °F 68.0 °F 62% 30.17 in 10.0 mi SSE 11.5 mph - N/A   Scattered Clouds
3:58 PM 84.2 °F 87.3 °F 68.0 °F 58% 30.13 in 10.0 mi SE 12.7 mph - N/A   Partly Cloudy
4:58 PM 83.7 °F 87.2 °F 69.1 °F 61% 30.13 in 10.0 mi SE 11.5 mph - N/A   Clear
5:58 PM 82.4 °F 85.8 °F 69.3 °F 64% 30.13 in 10.0 mi SSE 6.9 mph - N/A   Clear
6:58 PM 80.6 °F 83.5 °F 68.9 °F 67% 30.12 in 10.0 mi SSE 9.2 mph - N/A   Clear
7:58 PM 76.6 °F - 68.2 °F 75% 30.12 in 10.0 mi SE 8.1 mph - N/A   Clear
8:58 PM 74.5 °F - 67.5 °F 79% 30.13 in 10.0 mi SE 5.8 mph - N/A   Clear
9:58 PM 73.8 °F - 67.1 °F 80% 30.13 in 10.0 mi SSE 5.8 mph - N/A   Clear
10:58 PM 72.9 °F - 66.7 °F 81% 30.12 in 10.0 mi SE 4.6 mph - N/A   Clear
11:58 PM 75.2 °F - 67.3 °F 76% 30.11 in 10.0 mi SSE 8.1 mph - N/A   Partly Cloudy